User: anonymous   Login
Location: Moscow
(55.7500°N, 37.5830°E)
Time: 21:31:39
(UTC+03:00)
Language:

Vanguard 1 Rocket - Orbit

View from above orbital plane
View from above orbital plane
View from above satellite
View from above satellite

Ground track
Ground track

The orbit data is extracted from the following two-line orbital elements,

1 00016U 58002A   21333.57094917  .00000143  00000-0  18412-3 0  9993
2 00016  34.2758  64.0112 2028260 312.8866  31.8002 10.48785631514496
Epoch (UTC): 29 November 2021 13:42:10
Eccentricity: 0.2028260
inclination: 34.2758°
perigee height: 650 km
apogee height: 4226 km
right ascension of ascending node: 64.0112°
argument of perigee: 312.8866°
revolutions per day: 10.48785631
mean anomaly at epoch: 31.8002°
orbit number at epoch: 51449

The dashed part of the orbit path shows where the satellite is in the earth's shadow,  

DLR